2020-102D (47299 NORAD) Tracking and Keplerian Element Data

This shows tracking and keplerian element data for the satellite.

Feedback or suggestion? Click here.




ElementValue
Catalog47299
Name2020-102D
Epoch Orbit453
Epoch Day21.08062473
Epoch Year2021
RAAN121.025
Inclination97.4344
Eccentricity0.0006371
Argument of Perigee63.8317
Mean Anonmoly39.6144
Mean Motion15.19730028
Decay Rate6.89E-06
L11 47299U 20102D 21021.08062473 .00000689 00000-0 35423-4 0 9996
L22 47299 97.4344 121.0250 0006371 63.8317 39.6144 15.19730028 4535

Live tracking and technical data element details for 2020-102D (NORAD 47299). 2020-102D can be tracked NOW for your location showing map with azimuth and elevation plus other details from your city location.

Track the satellite on the map from your city or location and see movement details for azimuth, elevation, latitude, longitude, range, height, and movement on the map or in text.







IsCatalogInMostPopularTable: catalog: 47299, numindb: 12
Update: records affected: 1



GetName: 47299 2020-102D

Hit Count: updated at: Fri, 22 Jan 2021 14:50:28 GMT